Location: Добрич
(43.6638°N, 27.9002°E)
Time: 04:38:16
(UTC+03:00)

ISS - Pass Details

Date: 24 April 2026
Orbit: 414 x 424 km, 51.6° (Epoch: 15 May)

Event Time Altitude Azimuth Distance (km) Brightness Sun altitude
Exits shadow 03:25:36 21° 86° (E) 986 -1.5 -25.3°
Drops below altitude 10° 03:27:03 10° 71° (ENE) 1,500 -0.2 -25.1°
Sets 03:29:15 0° 63° (ENE) 2,370 1.1 -24.8°
